Weather History for Norway House, MB

Change the Weather History Date:

Monday, July 29, 2013

  Actual Average Record
Temperature  
Mean Temperature 47 °F -  
Max Temperature 69 °F 69 °F 87 °F (2000)
Min Temperature 25 °F 51 °F 25 °F (2013)
Degree Days  
Heating Degree Days 18    
Moisture  
Dew Point 52 °F    
Average Humidity 79    
Maximum Humidity 100    
Minimum Humidity 56    
Precipitation  
Precipitation 0.00 in - - ()
Sea Level Pressure  
Sea Level Pressure 29.92 in    
Wind  
Wind Speed 6 mph ()    
Max Wind Speed 14 mph    
Max Gust Speed 20 mph    
Visibility 9.0 miles    
Events Rain    
Averages and records for this station are not official NWS values.
T = Trace of Precipitation, MM = Missing Value Source: Averaged Metar Reports

Daily Weather History Graph

Daily Weather History Graph

Search for Another Location

Airport:

Trip Planner

Search our weather history database for the weather conditions in past years. The results will help you decide how hot, cold, wet, or windy it might be!

Date:

Astronomy

Jul. 29, 2013 Rise Set
Actual Time 5:40 AM CDT 9:34 PM CDT
Civil Twilight 4:55 AM CDT 10:18 PM CDT
Nautical Twilight 3:50 AM CDT 11:22 PM CDT
Astronomical Twilight 2:10 AM CDT 1:05 AM CDT
Moon No Moon Rise 2:44 PM CDT (7/29)
Length of Visible Light 17h 23m
Length of Day
15h 53m
Waning Gibbous, 50% of the Moon is Illuminated
Jul 29
Waning Gibbous
Jul 29
Last Quarter
Aug 6
New
Aug 14
First Quarter
Aug 20
Full

Hourly Weather History & Observations

Time (CDT) Temp. Dew Point Humidity Pressure Visibility Wind Dir Wind Speed Gust Speed Precip Events Conditions
12:00 AM 60.8 °F 50.0 °F 68% 29.96 in 9.0 mi South 5.8 mph - N/A   Overcast
1:00 AM 28 °F 28 °F 100% 30.12 in - South 5.8 mph - -  
1:00 AM 59.0 °F 51.8 °F 77% 29.95 in 9.0 mi South 3.5 mph - N/A   Mostly Cloudy
2:00 AM 57.2 °F 51.8 °F 82% 29.94 in 9.0 mi SSE 3.5 mph - N/A   Clear
3:00 AM 55.4 °F 51.8 °F 88% 29.93 in 9.0 mi South 3.5 mph - N/A   Clear
4:00 AM 55.4 °F 51.8 °F 88% 29.92 in 9.0 mi SSE 4.6 mph - N/A   Scattered Clouds
5:00 AM 53.6 °F 51.8 °F 94% 29.91 in 9.0 mi SSE 4.6 mph - N/A   Clear
6:00 AM 53.6 °F 51.8 °F 94% 29.91 in 9.0 mi SSE 4.6 mph - N/A   Clear
7:00 AM 31 °F 30 °F 93% 30.09 in - South 8.1 mph - -  
7:00 AM 57.2 °F 55.4 °F 94% 29.91 in 9.0 mi SSE 4.6 mph - N/A   Mostly Cloudy
8:00 AM 60.8 °F 57.2 °F 88% 29.91 in 9.0 mi South 6.9 mph - N/A   Overcast
9:00 AM 62.6 °F 57.2 °F 82% 29.90 in 9.0 mi South 6.9 mph - N/A   Overcast
10:00 AM 66.2 °F 55.4 °F 68% 29.91 in 9.0 mi SSW 11.5 mph 17.3 mph N/A   Overcast
11:00 AM 66.2 °F 53.6 °F 64% 29.91 in 9.0 mi SSW 8.1 mph 17.3 mph N/A   Overcast
12:00 PM 64.4 °F 57.2 °F 77% 29.90 in 9.0 mi SSW 12.7 mph 19.6 mph N/A   Scattered Clouds
12:30 PM 62.6 °F 57.2 °F 82% 29.89 in 9.0 mi South 11.5 mph 17.3 mph N/A Rain Light Rain
1:00 PM 41 °F 36 °F 77% 30.06 in - South 11.5 mph - -  
1:00 PM 62.6 °F 59.0 °F 88% 29.89 in 9.0 mi SSE 4.6 mph - N/A Rain Light Rain
1:16 PM 62.6 °F 60.8 °F 94% 29.89 in 9.0 mi South 4.6 mph - N/A   Mostly Cloudy
2:00 PM 66.2 °F 59.0 °F 78% 29.90 in 9.0 mi SW 12.7 mph - N/A   Partly Cloudy
3:00 PM 66.2 °F 57.2 °F 73% 29.89 in 9.0 mi SW 9.2 mph - N/A   Mostly Cloudy
4:00 PM 69.8 °F 57.2 °F 64% 29.88 in 9.0 mi SSW 8.1 mph - N/A   Overcast
5:00 PM 69.8 °F 53.6 °F 56% 29.88 in 9.0 mi South 12.7 mph 18.4 mph N/A   Mostly Cloudy
6:00 PM 69.8 °F 53.6 °F 56% 29.88 in 9.0 mi SSW 13.8 mph - N/A   Overcast
7:00 PM 43 °F 33 °F 57% 30.05 in - South 11.5 mph - -  
7:00 PM 69.8 °F 57.2 °F 64% 29.87 in 9.0 mi SSW 10.4 mph 18.4 mph N/A   Clear
8:00 PM 66.2 °F 59.0 °F 78% 29.86 in 9.0 mi SSW 8.1 mph 17.3 mph N/A   Scattered Clouds
9:00 PM 66.2 °F 59.0 °F 78% 29.86 in 9.0 mi South 5.8 mph - N/A   Clear
10:00 PM 64.4 °F 59.0 °F 83% 29.86 in 9.0 mi SW 6.9 mph - N/A   Mostly Cloudy
11:00 PM 62.6 °F 59.0 °F 88% 29.86 in 9.0 mi Calm Calm - N/A   Overcast